Time,TemperatureF,DewpointF,PressureIn,WindDirection,WindDirectionDegrees,WindSpeedMPH,WindSpeedGustMPH,Humidity,HourlyPrecipIn,Conditions,Clouds,dailyrainin,SoftwareType,DateUTC
2013-02-24 00:01:00,27.0,26.0,-100.00,SW,235,2.0,4.0,96,-99.99,,,-99.99,,2013-02-24 07:01:00,
2013-02-24 00:11:00,27.0,26.0,-100.00,SW,220,4.0,6.0,96,-99.99,,,-99.99,,2013-02-24 07:11:00,
2013-02-24 00:21:00,27.0,26.0,-100.00,SW,220,4.0,6.0,96,-99.99,,,-99.99,,2013-02-24 07:21:00,
2013-02-24 00:31:00,26.0,26.0,-100.00,SW,220,7.0,12.0,96,-99.99,,,-99.99,,2013-02-24 07:31:00,
2013-02-24 00:41:00,24.0,23.0,-100.00,SSW,200,7.0,12.0,96,-99.99,,,-99.99,,2013-02-24 07:41:00,
2013-02-24 00:51:00,23.0,22.0,-100.00,SW,215,11.0,17.0,96,-99.99,,,-99.99,,2013-02-24 07:51:00,
2013-02-24 01:01:00,23.0,22.0,-100.00,SW,215,11.0,17.0,96,-99.99,,,-99.99,,2013-02-24 08:01:00,
2013-02-24 01:11:00,22.0,22.0,-100.00,North,-999,-999.0,-999.0,97,-99.99,,,-99.99,,2013-02-24 08:11:00,
2013-02-24 01:21:00,22.0,22.0,-100.00,North,-999,-999.0,-999.0,97,-99.99,,,-99.99,,2013-02-24 08:21:00,
2013-02-24 01:31:00,22.0,22.0,-100.00,SW,225,9.0,14.0,97,-99.99,,,-99.99,,2013-02-24 08:31:00,
2013-02-24 01:41:00,22.0,21.0,-100.00,North,-999,-999.0,-999.0,97,-99.99,,,-99.99,,2013-02-24 08:41:00,
2013-02-24 01:53:00,22.0,21.0,-100.00,SW,230,4.0,-999.0,97,-99.99,,,-99.99,,2013-02-24 08:53:00,
2013-02-24 02:01:00,22.0,21.0,-100.00,SW,230,5.0,12.0,97,-99.99,,,-99.99,,2013-02-24 09:01:00,
2013-02-24 02:11:00,22.0,21.0,-100.00,West,280,6.0,8.0,97,-99.99,,,-99.99,,2013-02-24 09:11:00,
2013-02-24 02:21:00,22.0,21.0,-100.00,West,280,6.0,8.0,97,-99.99,,,-99.99,,2013-02-24 09:21:00,
2013-02-24 02:31:00,21.0,21.0,-100.00,WSW,240,5.0,12.0,97,-99.99,,,-99.99,,2013-02-24 09:31:00,
2013-02-24 02:41:00,21.0,21.0,-100.00,West,280,6.0,10.0,97,-99.99,,,-99.99,,2013-02-24 09:41:00,
2013-02-24 02:51:00,21.0,20.0,-100.00,WSW,240,9.0,12.0,97,-99.99,,,-99.99,,2013-02-24 09:51:00,
2013-02-24 03:01:00,21.0,20.0,-100.00,SW,235,7.0,12.0,97,-99.99,,,-99.99,,2013-02-24 10:01:00,
2013-02-24 03:11:00,21.0,20.0,-100.00,SW,225,6.0,11.0,97,-99.99,,,-99.99,,2013-02-24 10:11:00,
2013-02-24 03:21:00,21.0,20.0,-100.00,SW,235,10.0,-999.0,97,-99.99,,,-99.99,,2013-02-24 10:21:00,
2013-02-24 03:31:00,21.0,20.0,-100.00,WSW,255,7.0,10.0,97,-99.99,,,-99.99,,2013-02-24 10:31:00,
2013-02-24 03:41:00,21.0,20.0,-100.00,SW,230,7.0,11.0,97,-99.99,,,-99.99,,2013-02-24 10:41:00,
2013-02-24 03:51:00,21.0,20.0,-100.00,WNW,285,7.0,15.0,97,-99.99,,,-99.99,,2013-02-24 10:51:00,
2013-02-24 04:01:00,21.0,20.0,-100.00,WNW,285,7.0,15.0,97,-99.99,,,-99.99,,2013-02-24 11:01:00,
2013-02-24 04:11:00,21.0,20.0,-100.00,West,270,8.0,12.0,96,-99.99,,,-99.99,,2013-02-24 11:11:00,
2013-02-24 04:21:00,21.0,20.0,-100.00,West,270,8.0,12.0,96,-99.99,,,-99.99,,2013-02-24 11:21:00,
2013-02-24 04:31:00,21.0,20.0,-100.00,WNW,290,7.0,13.0,96,-99.99,,,-99.99,,2013-02-24 11:31:00,
2013-02-24 04:41:00,21.0,20.0,-100.00,SW,235,9.0,13.0,96,-99.99,,,-99.99,,2013-02-24 11:41:00,
2013-02-24 04:52:00,21.0,20.0,-100.00,SW,235,9.0,13.0,96,-99.99,,,-99.99,,2013-02-24 11:52:00,
2013-02-24 05:01:00,21.0,20.0,-100.00,West,265,5.0,-999.0,95,-99.99,,,-99.99,,2013-02-24 12:01:00,
2013-02-24 05:11:00,21.0,20.0,-100.00,West,265,5.0,-999.0,95,-99.99,,,-99.99,,2013-02-24 12:11:00,
2013-02-24 05:21:00,21.0,19.0,-100.00,SW,235,7.0,13.0,94,-99.99,,,-99.99,,2013-02-24 12:21:00,
2013-02-24 05:31:00,21.0,19.0,-100.00,WNW,285,6.0,10.0,94,-99.99,,,-99.99,,2013-02-24 12:31:00,
2013-02-24 05:45:00,20.0,19.0,-100.00,SW,215,6.0,11.0,93,-99.99,,,-99.99,,2013-02-24 12:45:00,
2013-02-24 05:56:00,20.0,19.0,-100.00,SW,215,6.0,11.0,93,-99.99,,,-99.99,,2013-02-24 12:56:00,
2013-02-24 06:05:00,20.0,19.0,-100.00,SW,235,4.0,12.0,93,-99.99,,,-99.99,,2013-02-24 13:05:00,
2013-02-24 06:33:00,20.0,18.0,-100.00,WSW,240,5.0,12.0,91,-99.99,,,-99.99,,2013-02-24 13:33:00,
2013-02-24 06:42:00,20.0,18.0,-100.00,SW,235,7.0,12.0,90,-99.99,,,-99.99,,2013-02-24 13:42:00,
2013-02-24 06:51:00,20.0,18.0,-100.00,WNW,295,7.0,12.0,89,-99.99,,,-99.99,,2013-02-24 13:51:00,
2013-02-24 07:02:00,20.0,18.0,-100.00,West,270,6.0,12.0,88,-99.99,,,-99.99,,2013-02-24 14:02:00,
2013-02-24 07:12:00,20.0,18.0,-100.00,SW,215,6.0,11.0,88,-99.99,,,-99.99,,2013-02-24 14:12:00,
2013-02-24 07:32:00,21.0,17.0,-100.00,SE,145,6.0,10.0,86,-99.99,,,-99.99,,2013-02-24 14:32:00,
2013-02-24 07:43:00,21.0,18.0,-100.00,SW,220,6.0,8.0,86,-99.99,,,-99.99,,2013-02-24 14:43:00,
2013-02-24 07:52:00,21.0,18.0,-100.00,SW,220,6.0,8.0,86,-99.99,,,-99.99,,2013-02-24 14:52:00,
2013-02-24 08:02:00,21.0,17.0,-100.00,SW,235,6.0,9.0,85,-99.99,,,-99.99,,2013-02-24 15:02:00,
2013-02-24 08:11:00,21.0,17.0,-100.00,SW,225,6.0,8.0,84,-99.99,,,-99.99,,2013-02-24 15:11:00,
2013-02-24 08:22:00,21.0,17.0,-100.00,SW,225,6.0,8.0,84,-99.99,,,-99.99,,2013-02-24 15:22:00,
2013-02-24 08:31:00,22.0,17.0,-100.00,WNW,285,4.0,8.0,83,-99.99,,,-99.99,,2013-02-24 15:31:00,
2013-02-24 08:41:00,22.0,17.0,-100.00,WNW,285,4.0,8.0,83,-99.99,,,-99.99,,2013-02-24 15:41:00,
2013-02-24 08:52:00,22.0,17.0,-100.00,WNW,285,4.0,8.0,83,-99.99,,,-99.99,,2013-02-24 15:52:00,
2013-02-24 09:01:00,21.0,17.0,-100.00,SW,215,4.0,7.0,84,-99.99,,,-99.99,,2013-02-24 16:01:00,
2013-02-24 09:11:00,22.0,18.0,-100.00,SW,225,3.0,6.0,84,-99.99,,,-99.99,,2013-02-24 16:11:00,
2013-02-24 09:21:00,22.0,18.0,-100.00,SW,225,3.0,6.0,84,-99.99,,,-99.99,,2013-02-24 16:21:00,
2013-02-24 09:31:00,22.0,18.0,-100.00,SW,225,4.0,7.0,84,-99.99,,,-99.99,,2013-02-24 16:31:00,
2013-02-24 09:41:00,22.0,18.0,-100.00,SW,215,3.0,6.0,85,-99.99,,,-99.99,,2013-02-24 16:41:00,
2013-02-24 09:52:00,22.0,18.0,-100.00,SW,215,3.0,6.0,85,-99.99,,,-99.99,,2013-02-24 16:52:00,
2013-02-24 10:01:00,22.0,18.0,-100.00,SW,220,3.0,6.0,86,-99.99,,,-99.99,,2013-02-24 17:01:00,
2013-02-24 10:11:00,21.0,18.0,-100.00,SW,220,3.0,6.0,86,-99.99,,,-99.99,,2013-02-24 17:11:00,
2013-02-24 10:21:00,22.0,18.0,-100.00,SW,220,3.0,6.0,86,-99.99,,,-99.99,,2013-02-24 17:21:00,
2013-02-24 10:31:00,22.0,18.0,-100.00,SW,220,2.0,4.0,86,-99.99,,,-99.99,,2013-02-24 17:31:00,
2013-02-24 10:41:00,22.0,19.0,-100.00,SW,220,2.0,3.0,86,-99.99,,,-99.99,,2013-02-24 17:41:00,
2013-02-24 10:52:00,22.0,19.0,-100.00,SW,220,2.0,3.0,86,-99.99,,,-99.99,,2013-02-24 17:52:00,
2013-02-24 11:01:00,22.0,19.0,-100.00,SSW,205,2.0,3.0,87,-99.99,,,-99.99,,2013-02-24 18:01:00,
2013-02-24 11:11:00,22.0,19.0,-100.00,SSW,195,1.0,2.0,88,-99.99,,,-99.99,,2013-02-24 18:11:00,
2013-02-24 11:21:00,23.0,20.0,-100.00,South,185,1.0,2.0,88,-99.99,,,-99.99,,2013-02-24 18:21:00,
2013-02-24 11:31:00,24.0,21.0,-100.00,SW,215,0.0,1.0,88,-99.99,,,-99.99,,2013-02-24 18:31:00,
2013-02-24 11:41:00,24.0,21.0,-100.00,SW,215,1.0,1.0,88,-99.99,,,-99.99,,2013-02-24 18:41:00,
2013-02-24 11:51:00,24.0,21.0,-100.00,SW,215,1.0,1.0,88,-99.99,,,-99.99,,2013-02-24 18:51:00,
2013-02-24 12:01:00,26.0,23.0,-100.00,SW,235,1.0,4.0,88,-99.99,,,-99.99,,2013-02-24 19:01:00,
2013-02-24 12:11:00,26.0,23.0,-100.00,SW,235,1.0,4.0,88,-99.99,,,-99.99,,2013-02-24 19:11:00,
2013-02-24 12:21:00,27.0,23.0,-100.00,East,80,4.0,8.0,84,-99.99,,,-99.99,,2013-02-24 19:21:00,
2013-02-24 12:32:00,29.0,23.0,-100.00,ENE,70,4.0,9.0,78,-99.99,,,-99.99,,2013-02-24 19:32:00,
2013-02-24 12:41:00,30.0,23.0,-100.00,ENE,60,5.0,9.0,74,-99.99,,,-99.99,,2013-02-24 19:41:00,
2013-02-24 12:52:00,30.0,23.0,-100.00,ENE,60,5.0,9.0,74,-99.99,,,-99.99,,2013-02-24 19:52:00,
2013-02-24 13:01:00,32.0,24.0,-100.00,NE,40,7.0,11.0,72,-99.99,,,-99.99,,2013-02-24 20:01:00,
2013-02-24 13:11:00,32.0,24.0,-100.00,NE,40,7.0,11.0,72,-99.99,,,-99.99,,2013-02-24 20:11:00,
2013-02-24 13:21:00,32.0,24.0,-100.00,NE,40,7.0,11.0,72,-99.99,,,-99.99,,2013-02-24 20:21:00,
2013-02-24 13:31:00,33.0,22.0,-100.00,NNE,30,4.0,12.0,63,-99.99,,,-99.99,,2013-02-24 20:31:00,
2013-02-24 13:42:00,32.0,20.0,-100.00,NE,35,4.0,12.0,61,-99.99,,,-99.99,,2013-02-24 20:42:00,
2013-02-24 13:52:00,32.0,20.0,-100.00,NE,35,4.0,12.0,61,-99.99,,,-99.99,,2013-02-24 20:52:00,
2013-02-24 14:01:00,32.0,20.0,-100.00,NE,35,7.0,14.0,60,-99.99,,,-99.99,,2013-02-24 21:01:00,
2013-02-24 14:11:00,32.0,20.0,-100.00,NE,35,7.0,14.0,60,-99.99,,,-99.99,,2013-02-24 21:11:00,
2013-02-24 14:21:00,33.0,20.0,-100.00,NNE,20,2.0,12.0,58,-99.99,,,-99.99,,2013-02-24 21:21:00,
2013-02-24 14:32:00,33.0,19.0,-100.00,NE,40,7.0,16.0,56,-99.99,,,-99.99,,2013-02-24 21:32:00,
2013-02-24 14:41:00,33.0,19.0,-100.00,NE,40,7.0,16.0,56,-99.99,,,-99.99,,2013-02-24 21:41:00,
2013-02-24 14:52:00,33.0,19.0,-100.00,NE,40,9.0,12.0,54,-99.99,,,-99.99,,2013-02-24 21:52:00,
2013-02-24 15:01:00,34.0,19.0,-100.00,NE,45,6.0,13.0,53,-99.99,,,-99.99,,2013-02-24 22:01:00,
2013-02-24 15:11:00,34.0,19.0,-100.00,NE,45,6.0,13.0,53,-99.99,,,-99.99,,2013-02-24 22:11:00,
2013-02-24 15:21:00,34.0,19.0,-100.00,NE,40,7.0,16.0,52,-99.99,,,-99.99,,2013-02-24 22:21:00,
2013-02-24 15:31:00,34.0,18.0,-100.00,NE,40,4.0,14.0,51,-99.99,,,-99.99,,2013-02-24 22:31:00,
2013-02-24 15:41:00,34.0,18.0,-100.00,NE,40,4.0,14.0,51,-99.99,,,-99.99,,2013-02-24 22:41:00,
2013-02-24 15:51:00,33.0,17.0,-100.00,NE,35,5.0,13.0,50,-99.99,,,-99.99,,2013-02-24 22:51:00,
2013-02-24 16:01:00,33.0,17.0,-100.00,NE,40,6.0,18.0,50,-99.99,,,-99.99,,2013-02-24 23:01:00,
2013-02-24 16:11:00,33.0,16.0,-100.00,NE,50,7.0,18.0,49,-99.99,,,-99.99,,2013-02-24 23:11:00,
2013-02-24 16:21:00,33.0,16.0,-100.00,NE,50,7.0,18.0,49,-99.99,,,-99.99,,2013-02-24 23:21:00,
2013-02-24 16:31:00,32.0,15.0,-100.00,NE,35,6.0,17.0,47,-99.99,,,-99.99,,2013-02-24 23:31:00,
2013-02-24 16:41:00,32.0,15.0,-100.00,NNE,30,7.0,14.0,47,-99.99,,,-99.99,,2013-02-24 23:41:00,
2013-02-24 16:52:00,32.0,15.0,-100.00,NNE,30,7.0,14.0,47,-99.99,,,-99.99,,2013-02-24 23:52:00,
2013-02-24 17:01:00,32.0,14.0,-100.00,NE,35,7.0,13.0,47,-99.99,,,-99.99,,2013-02-25 00:01:00,
2013-02-24 17:11:00,32.0,14.0,-100.00,NE,35,7.0,13.0,47,-99.99,,,-99.99,,2013-02-25 00:11:00,
2013-02-24 17:21:00,32.0,14.0,-100.00,NE,35,5.0,12.0,46,-99.99,,,-99.99,,2013-02-25 00:21:00,
2013-02-24 17:31:00,31.0,13.0,-100.00,NE,35,6.0,15.0,46,-99.99,,,-99.99,,2013-02-25 00:31:00,
2013-02-24 17:42:00,31.0,13.0,-100.00,NE,35,8.0,15.0,46,-99.99,,,-99.99,,2013-02-25 00:42:00,
2013-02-24 17:52:00,31.0,13.0,-100.00,NE,40,3.0,15.0,46,-99.99,,,-99.99,,2013-02-25 00:52:00,
2013-02-24 18:01:00,31.0,13.0,-100.00,NE,40,7.0,14.0,46,-99.99,,,-99.99,,2013-02-25 01:01:00,
2013-02-24 18:11:00,31.0,13.0,-100.00,NE,40,7.0,14.0,46,-99.99,,,-99.99,,2013-02-25 01:11:00,
2013-02-24 18:21:00,31.0,13.0,-100.00,NE,35,6.0,13.0,46,-99.99,,,-99.99,,2013-02-25 01:21:00,
2013-02-24 18:31:00,31.0,13.0,-100.00,NE,35,6.0,13.0,46,-99.99,,,-99.99,,2013-02-25 01:31:00,
2013-02-24 18:42:00,30.0,13.0,-100.00,ESE,115,1.0,11.0,47,-99.99,,,-99.99,,2013-02-25 01:42:00,
2013-02-24 18:52:00,30.0,13.0,-100.00,ESE,115,1.0,11.0,47,-99.99,,,-99.99,,2013-02-25 01:52:00,
2013-02-24 19:01:00,30.0,12.0,-100.00,NNE,30,6.0,12.0,47,-99.99,,,-99.99,,2013-02-25 02:01:00,
2013-02-24 19:11:00,30.0,12.0,-100.00,NNE,30,6.0,12.0,47,-99.99,,,-99.99,,2013-02-25 02:11:00,
2013-02-24 19:21:00,30.0,12.0,-100.00,NE,35,4.0,9.0,47,-99.99,,,-99.99,,2013-02-25 02:21:00,
2013-02-24 19:31:00,30.0,12.0,-100.00,NE,35,4.0,9.0,47,-99.99,,,-99.99,,2013-02-25 02:31:00,
2013-02-24 19:41:00,29.0,13.0,-100.00,SW,215,4.0,7.0,51,-99.99,,,-99.99,,2013-02-25 02:41:00,
2013-02-24 19:52:00,29.0,13.0,-100.00,SW,215,4.0,7.0,51,-99.99,,,-99.99,,2013-02-25 02:52:00,
2013-02-24 20:01:00,28.0,15.0,-100.00,West,280,3.0,9.0,57,-99.99,,,-99.99,,2013-02-25 03:01:00,
2013-02-24 20:11:00,28.0,15.0,-100.00,West,280,3.0,9.0,57,-99.99,,,-99.99,,2013-02-25 03:11:00,
2013-02-24 20:21:00,27.0,16.0,-100.00,WSW,255,4.0,6.0,62,-99.99,,,-99.99,,2013-02-25 03:21:00,
2013-02-24 20:31:00,27.0,16.0,-100.00,WSW,255,4.0,6.0,62,-99.99,,,-99.99,,2013-02-25 03:31:00,
2013-02-24 20:41:00,26.0,16.0,-100.00,SW,215,1.0,2.0,65,-99.99,,,-99.99,,2013-02-25 03:41:00,
2013-02-24 20:52:00,26.0,16.0,-100.00,SW,215,1.0,2.0,65,-99.99,,,-99.99,,2013-02-25 03:52:00,
2013-02-24 21:01:00,25.0,16.0,-100.00,WNW,295,1.0,3.0,67,-99.99,,,-99.99,,2013-02-25 04:01:00,
2013-02-24 21:11:00,25.0,16.0,-100.00,WSW,240,4.0,7.0,68,-99.99,,,-99.99,,2013-02-25 04:11:00,
2013-02-24 21:21:00,24.0,16.0,-100.00,SW,235,2.0,7.0,69,-99.99,,,-99.99,,2013-02-25 04:21:00,
2013-02-24 21:31:00,24.0,16.0,-100.00,SW,235,2.0,7.0,69,-99.99,,,-99.99,,2013-02-25 04:31:00,
2013-02-24 21:41:00,24.0,16.0,-100.00,SW,235,3.0,6.0,71,-99.99,,,-99.99,,2013-02-25 04:41:00,
2013-02-24 21:52:00,24.0,16.0,-100.00,SW,235,3.0,6.0,71,-99.99,,,-99.99,,2013-02-25 04:52:00,
2013-02-24 22:01:00,23.0,16.0,-100.00,WSW,245,4.0,5.0,72,-99.99,,,-99.99,,2013-02-25 05:01:00,
2013-02-24 22:11:00,23.0,16.0,-100.00,WSW,245,4.0,5.0,72,-99.99,,,-99.99,,2013-02-25 05:11:00,
2013-02-24 22:21:00,22.0,15.0,-100.00,West,270,3.0,6.0,73,-99.99,,,-99.99,,2013-02-25 05:21:00,
2013-02-24 22:31:00,22.0,15.0,-100.00,SW,220,2.0,6.0,73,-99.99,,,-99.99,,2013-02-25 05:31:00,
2013-02-24 22:41:00,22.0,15.0,-100.00,SW,230,0.0,4.0,73,-99.99,,,-99.99,,2013-02-25 05:41:00,
2013-02-24 22:52:00,22.0,15.0,-100.00,SW,230,0.0,4.0,73,-99.99,,,-99.99,,2013-02-25 05:52:00,
2013-02-24 23:02:00,21.0,14.0,-100.00,WSW,240,1.0,2.0,73,-99.99,,,-99.99,,2013-02-25 06:02:00,
2013-02-24 23:11:00,21.0,14.0,-100.00,WNW,300,1.0,2.0,73,-99.99,,,-99.99,,2013-02-25 06:11:00,
2013-02-24 23:21:00,21.0,14.0,-100.00,WNW,300,1.0,2.0,73,-99.99,,,-99.99,,2013-02-25 06:21:00,
2013-02-24 23:31:00,21.0,14.0,-100.00,SSE,155,0.0,1.0,73,-99.99,,,-99.99,,2013-02-25 06:31:00,
2013-02-24 23:41:00,21.0,14.0,-100.00,SSE,155,0.0,1.0,73,-99.99,,,-99.99,,2013-02-25 06:41:00,
2013-02-24 23:51:00,20.0,13.0,-100.00,SSE,165,0.0,1.0,73,-99.99,,,-99.99,,2013-02-25 06:51:00,